TimeCST,TemperatureF,Dew PointF,Humidity,Sea Level PressureIn,VisibilityMPH,Wind Direction,Wind SpeedMPH,Gust SpeedMPH,PrecipitationIn,Events,Conditions,WindDirDegrees,DateUTC
12:54 AM,21.9,12.0,66,30.42,10.0,NNE,3.5,-,N/A,,Mostly Cloudy,20,2013-01-15 06:54:00
1:54 AM,21.0,12.9,71,30.41,10.0,Calm,Calm,-,N/A,,Overcast,0,2013-01-15 07:54:00
2:54 AM,19.0,12.0,74,30.40,10.0,Calm,Calm,-,N/A,,Partly Cloudy,0,2013-01-15 08:54:00
3:54 AM,18.0,10.9,74,30.39,10.0,NE,3.5,-,N/A,,Mostly Cloudy,50,2013-01-15 09:54:00
4:54 AM,18.0,12.0,78,30.39,10.0,NW,3.5,-,N/A,,Clear,320,2013-01-15 10:54:00
5:54 AM,17.1,12.9,84,30.41,10.0,NW,3.5,-,N/A,,Mostly Cloudy,320,2013-01-15 11:54:00
6:54 AM,17.1,12.9,84,30.41,9.0,Calm,Calm,-,N/A,,Scattered Clouds,0,2013-01-15 12:54:00
7:54 AM,19.0,12.9,77,30.41,9.0,Calm,Calm,-,N/A,,Partly Cloudy,0,2013-01-15 13:54:00
8:54 AM,21.9,14.0,72,30.39,8.0,NE,5.8,-,N/A,,Scattered Clouds,50,2013-01-15 14:54:00
9:54 AM,24.1,12.0,60,30.40,10.0,Calm,Calm,-,N/A,,Scattered Clouds,0,2013-01-15 15:54:00
10:54 AM,26.1,10.9,53,30.39,10.0,ESE,3.5,-,N/A,,Partly Cloudy,120,2013-01-15 16:54:00
11:54 AM,28.9,8.1,41,30.36,10.0,Calm,Calm,-,N/A,,Clear,0,2013-01-15 17:54:00
12:54 PM,30.0,3.9,33,30.32,10.0,ESE,4.6,-,N/A,,Clear,120,2013-01-15 18:54:00
1:54 PM,32.0,3.9,31,30.29,10.0,East,3.5,-,N/A,,Clear,100,2013-01-15 19:54:00
2:54 PM,32.0,5.0,32,30.29,10.0,Calm,Calm,-,N/A,,Clear,0,2013-01-15 20:54:00
3:54 PM,33.1,6.1,32,30.28,10.0,NNW,3.5,-,N/A,,Clear,330,2013-01-15 21:54:00
4:54 PM,32.0,7.0,35,30.27,10.0,Calm,Calm,-,N/A,,Clear,0,2013-01-15 22:54:00
5:54 PM,28.9,9.0,43,30.26,10.0,East,4.6,-,N/A,,Clear,90,2013-01-15 23:54:00
6:54 PM,28.0,10.9,49,30.27,10.0,East,3.5,-,N/A,,Clear,90,2013-01-16 00:54:00
7:54 PM,26.1,10.9,53,30.26,10.0,ESE,3.5,-,N/A,,Clear,120,2013-01-16 01:54:00
8:54 PM,26.1,10.9,53,30.24,10.0,SSW,4.6,-,N/A,,Clear,210,2013-01-16 02:54:00
9:54 PM,24.1,10.9,57,30.22,10.0,South,3.5,-,N/A,,Clear,190,2013-01-16 03:54:00
10:54 PM,23.0,10.0,58,30.22,10.0,SW,3.5,-,N/A,,Clear,230,2013-01-16 04:54:00
11:54 PM,23.0,10.0,58,30.20,10.0,SSW,4.6,-,N/A,,Clear,210,2013-01-16 05:54:00